| time (UTC) | temp F | wind direction | speed MPH | gust MPH | rain 1hr in | rain 24hr in | rain mn in | humidity % | barometer mb |
| 20260507003025 | 72 | 226 | 7.0 | 16.0 | 0.00 | 0.00 | 0.00 | 30 | 1013.7 |
| 20260507001526 | 72 | 235 | 7.0 | 13.0 | 0.00 | 0.00 | 0.00 | 32 | 1013.6 |
| 20260507000023 | 72 | 244 | 10.0 | 15.0 | 0.00 | 0.00 | 0.00 | 32 | 1013.6 |
| 20260506234527 | 72 | 313 | 7.0 | 17.0 | 0.00 | 0.00 | 0.00 | 31 | 1013.6 |
| 20260506233026 | 74 | 253 | 8.0 | 17.0 | 0.00 | 0.00 | 0.00 | 30 | 1013.6 |
| 20260506230027 | 72 | 255 | 11.0 | 15.0 | 0.00 | 0.00 | 0.00 | 32 | 1013.8 |
| 20260506224521 | 72 | 271 | 6.0 | 12.0 | 0.00 | 0.00 | 0.00 | 31 | 1014.0 |
| 20260506223019 | 71 | 224 | 10.0 | 17.0 | 0.00 | 0.00 | 0.00 | 33 | 1014.1 |
| 20260506221517 | 72 | 256 | 4.0 | 14.0 | 0.00 | 0.00 | 0.00 | 35 | 1014.2 |
| 20260506220017 | 71 | 244 | 8.0 | 13.0 | 0.00 | 0.00 | 0.00 | 36 | 1014.4 |
| 20260506213009 | 72 | 262 | 6.0 | 20.0 | 0.00 | 0.00 | 0.00 | 34 | 1015.0 |
| 20260506211530 | 71 | 260 | 7.0 | 12.0 | 0.00 | 0.00 | 0.00 | 35 | 1015.2 |
| 20260506210028 | 71 | 290 | 5.0 | 19.0 | 0.00 | 0.00 | 0.00 | 34 | 1015.3 |
| 20260506204523 | 70 | 248 | 11.0 | 21.0 | 0.00 | 0.00 | 0.00 | 35 | 1015.2 |
| 20260506203023 | 70 | 220 | 9.0 | 18.0 | 0.00 | 0.00 | 0.00 | 33 | 1015.1 |
| 20260506201530 | 70 | 240 | 10.0 | 17.0 | 0.00 | 0.00 | 0.00 | 33 | 1015.3 |
| 20260506200016 | 70 | 218 | 7.0 | 19.0 | 0.00 | 0.00 | 0.00 | 34 | 1015.4 |
| 20260506194524 | 70 | 232 | 12.0 | 15.0 | 0.00 | 0.00 | 0.00 | 34 | 1015.5 |
| 20260506191528 | 67 | 42 | 4.0 | 9.0 | 0.00 | 0.00 | 0.00 | 36 | 1015.8 |
| 20260506190029 | 67 | 221 | 1.0 | 9.0 | 0.00 | 0.00 | 0.00 | 34 | 1016.0 |
| 20260506184527 | 65 | 213 | 3.0 | 5.0 | 0.00 | 0.00 | 0.00 | 37 | 1016.0 |
| 20260506183022 | 64 | 57 | 1.0 | 5.0 | 0.00 | 0.00 | 0.00 | 39 | 1016.2 |
| 20260506181522 | 62 | 76 | 2.0 | 3.0 | 0.00 | 0.00 | 0.00 | 44 | 1016.6 |
| 20260506174524 | 59 | 49 | 0.0 | 4.0 | 0.00 | 0.00 | 0.00 | 44 | 1016.7 |
| 20260506173028 | 58 | 59 | 3.0 | 4.0 | 0.00 | 0.00 | 0.00 | 44 | 1017.0 |
| 20260506171538 | 56 | 328 | 0.0 | 3.0 | 0.00 | 0.00 | 0.00 | 43 | 1017.1 |
| 20260506170024 | 54 | 20 | 0.0 | 4.0 | 0.00 | 0.00 | 0.00 | 43 | 1017.3 |
| 20260506164528 | 53 | 360 | 1.0 | 2.0 | 0.00 | 0.00 | 0.00 | 46 | 1017.5 |
| 20260506163024 | 52 | 46 | 1.0 | 3.0 | 0.00 | 0.00 | 0.00 | 45 | 1017.6 |
| 20260506161525 | 50 | 69 | 1.0 | 3.0 | 0.00 | 0.00 | 0.00 | 48 | 1017.9 |
| 20260506160024 | 49 | 86 | 2.0 | 4.0 | 0.00 | 0.00 | 0.00 | 47 | 1018.2 |
| 20260506153021 | 48 | 349 | 1.0 | 3.0 | 0.00 | 0.00 | 0.00 | 49 | 1018.5 |
| 20260506151527 | 46 | 336 | 1.0 | 4.0 | 0.00 | 0.00 | 0.00 | 48 | 1018.7 |
| 20260506150028 | 45 | 236 | 3.0 | 4.0 | 0.00 | 0.00 | 0.00 | 50 | 1018.8 |
| 20260506144525 | 44 | 229 | 2.0 | 4.0 | 0.00 | 0.00 | 0.00 | 53 | 1018.9 |
| 20260506140032 | 41 | 205 | 3.0 | 5.0 | 0.00 | 0.00 | 0.00 | 59 | 1019.1 |
| 20260506134523 | 40 | 229 | 3.0 | 5.0 | 0.00 | 0.00 | 0.00 | 58 | 1019.2 |
| 20260506133028 | 41 | 245 | 4.0 | 5.0 | 0.00 | 0.00 | 0.00 | 54 | 1018.9 |
| 20260506131518 | 40 | 70 | 1.0 | 2.0 | 0.00 | 0.00 | 0.00 | 51 | 1018.8 |
| 20260506130019 | 38 | 155 | 1.0 | 6.0 | 0.00 | 0.00 | 0.00 | 56 | 1018.9 |
| 20260506123012 | 35 | 227 | 1.0 | 3.0 | 0.00 | 0.00 | 0.00 | 64 | 1018.8 |
| 20260506121510 | 36 | 234 | 3.0 | 6.0 | 0.00 | 0.00 | 0.00 | 62 | 1018.7 |
| 20260506120026 | 35 | 111 | 4.0 | 5.0 | 0.00 | 0.00 | 0.00 | 63 | 1018.5 |
| 20260506114534 | 37 | 223 | 2.0 | 7.0 | 0.00 | 0.00 | 0.00 | 62 | 1018.6 |
| 20260506113024 | 37 | 108 | 7.0 | 10.0 | 0.00 | 0.00 | 0.00 | 56 | 1018.6 |
| 20260506111522 | 38 | 140 | 3.0 | 7.0 | 0.00 | 0.00 | 0.00 | 59 | 1018.7 |
| 20260506110022 | 38 | 144 | 6.0 | 10.0 | 0.00 | 0.00 | 0.00 | 58 | 1018.6 |
| 20260506104518 | 39 | 124 | 8.0 | 12.0 | 0.00 | 0.00 | 0.00 | 58 | 1018.6 |
| 20260506103018 | 38 | 160 | 4.0 | 11.0 | 0.00 | 0.00 | 0.00 | 59 | 1018.6 |
| 20260506101526 | 39 | 158 | 4.0 | 11.0 | 0.00 | 0.00 | 0.00 | 58 | 1018.6 |
| 20260506100026 | 38 | 129 | 8.0 | 11.0 | 0.00 | 0.00 | 0.00 | 60 | 1018.7 |
| 20260506094526 | 38 | 117 | 6.0 | 11.0 | 0.00 | 0.00 | 0.00 | 60 | 1018.8 |
| 20260506093024 | 38 | 126 | 5.0 | 10.0 | 0.00 | 0.00 | 0.00 | 61 | 1018.9 |
| 20260506091522 | 38 | 136 | 8.0 | 11.0 | 0.00 | 0.00 | 0.00 | 61 | 1019.1 |
| 20260506084519 | 39 | 234 | 0.0 | 12.0 | 0.00 | 0.00 | 0.00 | 58 | 1019.1 |
| 20260506083027 | 39 | 126 | 6.0 | 11.0 | 0.00 | 0.00 | 0.00 | 59 | 1019.1 |
| 20260506081524 | 38 | 122 | 8.0 | 10.0 | 0.00 | 0.00 | 0.00 | 62 | 1019.1 |
| 20260506073025 | 42 | 162 | 2.0 | 7.0 | 0.00 | 0.00 | 0.00 | 54 | 1019.3 |
| 20260506071524 | 43 | 148 | 1.0 | 4.0 | 0.00 | 0.00 | 0.00 | 53 | 1019.2 |
| 20260506061528 | 44 | 120 | 1.0 | 2.0 | 0.00 | 0.00 | 0.00 | 50 | 1018.9 |
| 20260506044504 | 45 | 115 | 2.0 | 6.0 | 0.00 | 0.00 | 0.00 | 53 | 1018.4 |
| 20260506043025 | 46 | 47 | 4.0 | 7.0 | 0.00 | 0.00 | 0.00 | 51 | 1018.2 |
| 20260506041519 | 47 | 54 | 4.0 | 8.0 | 0.00 | 0.00 | 0.00 | 50 | 1017.9 |
| 20260506040016 | 48 | 325 | 5.0 | 10.0 | 0.00 | 0.00 | 0.00 | 46 | 1017.7 |
| 20260506034528 | 49 | 305 | 4.0 | 8.0 | 0.00 | 0.00 | 0.00 | 45 | 1017.5 |
| 20260506033012 | 49 | 320 | 4.0 | 8.0 | 0.00 | 0.00 | 0.00 | 43 | 1017.3 |
| 20260506031517 | 50 | 292 | 1.0 | 4.0 | 0.00 | 0.00 | 0.00 | 40 | 1017.2 |
| 20260506030019 | 51 | 340 | 2.0 | 7.0 | 0.00 | 0.00 | 0.00 | 38 | 1016.9 |
| 20260506024515 | 51 | 20 | 4.0 | 11.0 | 0.00 | 0.00 | 0.00 | 38 | 1016.6 |
| 20260506023023 | 53 | 352 | 10.0 | 14.0 | 0.00 | 0.00 | 0.00 | 34 | 1016.2 |
| 20260506021521 | 54 | 20 | 8.0 | 17.0 | 0.00 | 0.00 | 0.00 | 35 | 1015.9 |
| 20260506020020 | 54 | 22 | 15.0 | 20.0 | 0.00 | 0.00 | 0.00 | 32 | 1015.7 |
| 20260506014516 | 55 | 28 | 14.0 | 21.0 | 0.00 | 0.00 | 0.00 | 33 | 1015.4 |
| 20260506013011 | 55 | 360 | 13.0 | 22.0 | 0.00 | 0.00 | 0.00 | 31 | 1015.2 |
| 20260506011517 | 56 | 346 | 18.0 | 28.0 | 0.00 | 0.00 | 0.00 | 27 | 1015.1 |
| 20260506010008 | 56 | 27 | 17.0 | 25.0 | 0.00 | 0.00 | 0.00 | 29 | 1014.9 |
| 20260506004542 | 57 | 360 | 17.0 | 24.0 | 0.00 | 0.00 | 0.00 | 29 | 1014.6 |